Zeus — V2OR — position and weather

sailwx.info

Track history (hours):
 
Tides and Currents Weather Stations Pressure Air Temp Water Temp Dewpoint Dewpoint Depression Visibility Wind Speed Wind Dir Waves Ship Positions

Zeus

Last reported at 2014-Oct-25 04:33 UTC. Time now 2014-Oct-25 05:43 UTC.
Position N 52°59' E 004°21'.

Length 90 m; draft 4.6 m.

Type: Cargo ship. MMSI: 304011025.

Date/timePositionNaut miles runAvg speedWind from/ knotsBaromVisibWave heightAir tempDewpointWater temp
2014-Oct-25 04:33N 52°59' E 004°21'8 8.1
2014-Oct-25 03:33N 52°52' E 004°16'101 7.2
2014-Oct-24 13:32N 51°36' E 002°25'8 7.9
2014-Oct-24 12:33N 51°30' E 002°17'8 8.1
2014-Oct-24 11:33N 51°23' E 002°11'8 7.9
2014-Oct-24 10:33N 51°16' E 002°06'8 7.9
2014-Oct-24 09:33N 51°11' E 001°56'7 7.0
2014-Oct-24 08:33N 51°07' E 001°47'7 6.7
2014-Oct-24 07:34N 51°02' E 001°40'7 6.5
2014-Oct-24 06:33N 50°57' E 001°33'201 6.7
2014-Oct-23 00:33N 49°38' W 003°16'  
Track history (hours):
 
Tides and Currents Weather Stations Pressure Air Temp Water Temp Dewpoint Dewpoint Depression Visibility Wind Speed Wind Dir Waves Ship Positions

Zeus

Last reported at 2014-Oct-25 04:33 UTC. Time now 2014-Oct-25 05:43 UTC.
Position N 52°59' E 004°21'.

Length 90 m; draft 4.6 m.

Type: Cargo ship. MMSI: 304011025.

Date/timePositionNaut miles runAvg speedWind from/ knotsBaromVisibWave heightAir tempDewpointWater temp
2014-Oct-25 04:33N 52°59' E 004°21'8 8.1
2014-Oct-25 03:33N 52°52' E 004°16'101 7.2
2014-Oct-24 13:32N 51°36' E 002°25'8 7.9
2014-Oct-24 12:33N 51°30' E 002°17'8 8.1
2014-Oct-24 11:33N 51°23' E 002°11'8 7.9
2014-Oct-24 10:33N 51°16' E 002°06'8 7.9
2014-Oct-24 09:33N 51°11' E 001°56'7 7.0
2014-Oct-24 08:33N 51°07' E 001°47'7 6.7
2014-Oct-24 07:34N 51°02' E 001°40'7 6.5
2014-Oct-24 06:33N 50°57' E 001°33'201 6.7
2014-Oct-23 00:33N 49°38' W 003°16'  

Dump ship's entire track history